STARLINK-1594 (46140 NORAD) Tracking and Keplerian Element Data

This shows tracking and keplerian element data for the satellite.

Feedback or suggestion? Click here.




ElementValue
Catalog46140
NameSTARLINK-1594
Epoch Orbit187
Epoch Day336.91667824
Epoch Year2020
RAAN284.2567
Inclination52.9986
Eccentricity0.0008801
Argument of Perigee276.046
Mean Anonmoly325.1961
Mean Motion15.62770623
Decay Rate-0.00018284
L11 46140U 20057Z 20336.91667824 -.00018284 00000-0 -19365-3 0 9998
L22 46140 52.9986 284.2567 0008801 276.0460 325.1961 15.62770623 1874

Live tracking and technical data element details for STARLINK-1594 (NORAD 46140). STARLINK-1594 can be tracked NOW for your location showing map with azimuth and elevation plus other details from your city location.

Track the satellite on the map from your city or location and see movement details for azimuth, elevation, latitude, longitude, range, height, and movement on the map or in text.







IsCatalogInMostPopularTable: catalog: 46140, numindb: 18
Update: records affected: 1



GetName: 46140 STARLINK-1594

Hit Count: updated at: Wed, 02 Dec 2020 19:34:16 GMT